TimeCST,TemperatureF,Dew PointF,Humidity,Sea Level PressureIn,VisibilityMPH,Wind Direction,Wind SpeedMPH,Gust SpeedMPH,PrecipitationIn,Events,Conditions,WindDirDegrees,DateUTC
12:53 AM,19.0,16.0,88,30.20,10.0,SW,5.8,-,N/A,,Clear,220,2013-11-05 06:53:00
1:53 AM,18.0,15.1,88,30.21,10.0,SW,3.5,-,N/A,,Clear,230,2013-11-05 07:53:00
2:53 AM,19.9,17.1,89,30.23,10.0,Calm,Calm,-,N/A,,Partly Cloudy,0,2013-11-05 08:53:00
3:53 AM,21.9,19.0,89,30.23,10.0,SSE,3.5,-,N/A,,Mostly Cloudy,160,2013-11-05 09:53:00
4:53 AM,23.0,19.9,88,30.24,10.0,Calm,Calm,-,N/A,,Mostly Cloudy,0,2013-11-05 10:53:00
5:53 AM,21.9,19.9,92,30.24,10.0,Calm,Calm,-,N/A,,Clear,0,2013-11-05 11:53:00
6:53 AM,21.9,19.0,89,30.23,10.0,Calm,Calm,-,N/A,,Clear,0,2013-11-05 12:53:00
7:53 AM,21.0,19.0,92,30.25,10.0,WSW,4.6,-,N/A,,Clear,240,2013-11-05 13:53:00
8:53 AM,28.0,24.1,85,30.27,10.0,Calm,Calm,-,N/A,,Overcast,0,2013-11-05 14:53:00
9:53 AM,32.0,21.9,66,30.28,10.0,NW,8.1,-,N/A,,Overcast,310,2013-11-05 15:53:00
10:53 AM,32.0,19.0,59,30.29,10.0,Calm,Calm,-,N/A,,Overcast,0,2013-11-05 16:53:00
11:53 AM,34.0,19.0,54,30.28,10.0,WSW,4.6,-,N/A,,Overcast,240,2013-11-05 17:53:00
12:53 PM,35.1,17.1,48,30.25,10.0,Calm,Calm,-,N/A,,Clear,0,2013-11-05 18:53:00
1:53 PM,36.0,16.0,44,30.22,10.0,WNW,4.6,-,N/A,,Overcast,300,2013-11-05 19:53:00
2:53 PM,36.0,17.1,46,30.19,10.0,NW,5.8,-,N/A,,Clear,320,2013-11-05 20:53:00
3:53 PM,36.0,15.1,43,30.18,10.0,North,8.1,-,N/A,,Partly Cloudy,350,2013-11-05 21:53:00
4:53 PM,35.1,17.1,48,30.18,10.0,North,3.5,-,N/A,,Overcast,360,2013-11-05 22:53:00
5:53 PM,34.0,17.1,50,30.19,10.0,Calm,Calm,-,N/A,,Overcast,0,2013-11-05 23:53:00
6:53 PM,32.0,21.0,64,30.21,10.0,NNW,3.5,-,N/A,,Overcast,330,2013-11-06 00:53:00
7:53 PM,32.0,19.9,61,30.21,10.0,NW,4.6,-,N/A,,Overcast,320,2013-11-06 01:53:00
8:53 PM,30.9,19.0,61,30.20,10.0,WNW,3.5,-,N/A,,Overcast,300,2013-11-06 02:53:00
9:53 PM,28.0,21.0,75,30.20,10.0,WNW,4.6,-,N/A,,Partly Cloudy,300,2013-11-06 03:53:00
10:53 PM,26.1,19.0,75,30.19,10.0,NW,5.8,-,N/A,,Clear,310,2013-11-06 04:53:00
11:53 PM,24.1,18.0,77,30.19,10.0,NW,5.8,-,N/A,,Clear,320,2013-11-06 05:53:00